| time (UTC) | temp C | wind direction | speed KPH | gust KPH | rain 1hr cm | rain 24hr cm | rain mn cm | humidity % | barometer mb |
| 20260503190154 | 13 | 238 | 33.8 | 0.0 | 0.00 | 0.00 | 0.00 | 56 | 983.8 |
| 20260503184621 | 14 | 235 | 33.8 | 0.0 | 0.00 | 0.00 | 0.00 | 47 | 984.6 |
| 20260503183631 | 14 | 236 | 32.2 | 0.0 | 0.00 | 0.00 | 0.00 | 47 | 984.6 |
| 20260503181618 | 14 | 234 | 33.8 | 0.0 | 0.00 | 0.00 | 0.00 | 51 | 984.8 |
| 20260503180200 | 15 | 233 | 32.2 | 0.0 | 0.00 | 0.00 | 0.00 | 51 | 984.8 |
| 20260503174617 | 14 | 237 | 33.8 | 0.0 | 0.00 | 0.00 | 0.00 | 47 | 985.3 |
| 20260503173138 | 14 | 235 | 33.8 | 0.0 | 0.00 | 0.00 | 0.00 | 45 | 984.6 |
| 20260503170148 | 13 | 235 | 33.8 | 0.0 | 0.00 | 0.00 | 0.00 | 45 | 984.6 |
| 20260503160158 | 13 | 235 | 29.0 | 0.0 | 0.00 | 0.00 | 0.00 | 52 | 984.1 |
| 20260503150154 | 11 | 237 | 24.1 | 0.0 | 0.00 | 0.00 | 0.00 | 57 | 985.2 |
| 20260503140205 | 10 | 228 | 25.7 | 0.0 | 0.00 | 0.00 | 0.00 | 59 | 985.2 |
| 20260503130152 | 6 | 225 | 17.7 | 0.0 | 0.00 | 0.00 | 0.00 | 69 | 985.5 |
| 20260503120205 | 5 | 217 | 14.5 | 0.0 | 0.00 | 0.00 | 0.00 | 70 | 985.7 |
| 20260503110152 | 2 | 213 | 14.5 | 0.0 | 0.00 | 0.00 | 0.00 | 73 | 984.8 |
| 20260503100154 | 2 | 211 | 12.9 | 0.0 | 0.00 | 0.00 | 0.00 | 74 | 984.8 |
| 20260503090149 | 2 | 207 | 14.5 | 0.0 | 0.00 | 0.00 | 0.00 | 71 | 985.0 |
| 20260503081618 | 2 | 201 | 12.9 | 0.0 | 0.00 | 0.00 | 0.00 | 68 | 985.5 |
| 20260503080145 | 2 | 201 | 11.3 | 0.0 | 0.00 | 0.00 | 0.00 | 67 | 985.0 |
| 20260503071618 | 2 | 190 | 11.3 | 0.0 | 0.00 | 0.00 | 0.00 | 68 | 985.7 |
| 20260503070148 | 2 | 200 | 11.3 | 0.0 | 0.00 | 0.00 | 0.00 | 68 | 985.7 |
| 20260503060208 | 2 | 197 | 9.7 | 0.0 | 0.00 | 0.00 | 0.00 | 70 | 986.7 |
| 20260503054618 | 2 | 193 | 8.0 | 0.0 | 0.00 | 0.00 | 0.00 | 71 | 987.1 |
| 20260503051618 | 1 | 190 | 8.0 | 0.0 | 0.00 | 0.00 | 0.00 | 74 | 987.3 |
| 20260503050149 | 2 | 195 | 8.0 | 0.0 | 0.00 | 0.00 | 0.00 | 74 | 987.3 |
| 20260503044617 | 2 | 198 | 6.4 | 0.0 | 0.00 | 0.00 | 0.00 | 71 | 987.6 |
| 20260503043137 | 2 | 196 | 6.4 | 0.0 | 0.00 | 0.00 | 0.00 | 72 | 987.1 |
| 20260503041618 | 2 | 195 | 8.0 | 0.0 | 0.00 | 0.00 | 0.00 | 72 | 987.1 |
| 20260503040151 | 2 | 198 | 8.0 | 0.0 | 0.00 | 0.00 | 0.00 | 72 | 987.1 |
| 20260503034618 | 2 | 202 | 8.0 | 0.0 | 0.00 | 0.00 | 0.00 | 68 | 988.2 |
| 20260503033139 | 2 | 202 | 8.0 | 0.0 | 0.00 | 0.00 | 0.00 | 70 | 988.3 |
| 20260503031618 | 3 | 201 | 8.0 | 0.0 | 0.00 | 0.00 | 0.00 | 70 | 988.3 |
| 20260503030150 | 3 | 208 | 8.0 | 0.0 | 0.00 | 0.00 | 0.00 | 70 | 988.3 |
| 20260503024618 | 3 | 207 | 6.4 | 0.0 | 0.00 | 0.00 | 0.00 | 61 | 989.0 |
| 20260503023137 | 3 | 217 | 6.4 | 0.0 | 0.00 | 0.00 | 0.00 | 66 | 988.7 |
| 20260503021618 | 3 | 228 | 8.0 | 0.0 | 0.00 | 0.00 | 0.00 | 66 | 988.7 |
| 20260503020148 | 3 | 232 | 8.0 | 0.0 | 0.00 | 0.00 | 0.00 | 66 | 988.7 |
| 20260503014618 | 4 | 241 | 8.0 | 0.0 | 0.00 | 0.00 | 0.00 | 62 | 988.2 |
| 20260503013136 | 4 | 244 | 8.0 | 0.0 | 0.00 | 0.00 | 0.00 | 62 | 988.2 |
| 20260503011618 | 5 | 239 | 8.0 | 0.0 | 0.00 | 0.00 | 0.00 | 62 | 988.2 |
| 20260503010148 | 5 | 243 | 8.0 | 0.0 | 0.00 | 0.00 | 0.00 | 62 | 988.2 |
| 20260503004617 | 5 | 242 | 8.0 | 0.0 | 0.00 | 0.00 | 0.00 | 51 | 989.0 |
| 20260503003131 | 6 | 241 | 8.0 | 0.0 | 0.00 | 0.00 | 0.00 | 51 | 989.2 |
| 20260503001618 | 6 | 243 | 4.8 | 0.0 | 0.00 | 0.00 | 0.00 | 51 | 989.2 |
| 20260503000153 | 6 | 260 | 4.8 | 0.0 | 0.00 | 0.00 | 0.00 | 51 | 989.2 |
| 20260502234620 | 7 | 278 | 6.4 | 0.0 | 0.00 | 0.00 | 0.00 | 41 | 989.1 |
| 20260502233131 | 7 | 274 | 9.7 | 0.0 | 0.00 | 0.00 | 0.00 | 42 | 989.1 |
| 20260502231619 | 7 | 275 | 11.3 | 0.0 | 0.00 | 0.00 | 0.00 | 42 | 989.1 |
| 20260502230146 | 7 | 276 | 12.9 | 0.0 | 0.00 | 0.00 | 0.00 | 42 | 989.1 |
| 20260502224619 | 7 | 278 | 14.5 | 0.0 | 0.00 | 0.00 | 0.00 | 44 | 989.4 |
| 20260502223137 | 8 | 276 | 16.1 | 0.0 | 0.00 | 0.00 | 0.00 | 41 | 990.2 |
| 20260502221619 | 8 | 276 | 16.1 | 0.0 | 0.00 | 0.00 | 0.00 | 41 | 990.2 |
| 20260502220146 | 8 | 276 | 17.7 | 0.0 | 0.00 | 0.00 | 0.00 | 41 | 990.2 |
| 20260502214619 | 8 | 277 | 17.7 | 0.0 | 0.00 | 0.00 | 0.00 | 43 | 990.2 |
| 20260502213137 | 8 | 276 | 16.1 | 0.0 | 0.00 | 0.00 | 0.00 | 43 | 989.9 |
| 20260502211619 | 8 | 274 | 16.1 | 0.0 | 0.00 | 0.00 | 0.00 | 43 | 989.9 |
| 20260502210148 | 8 | 272 | 16.1 | 0.0 | 0.00 | 0.00 | 0.00 | 43 | 989.9 |
| 20260502204618 | 8 | 271 | 16.1 | 0.0 | 0.00 | 0.00 | 0.00 | 39 | 990.3 |
| 20260502203137 | 8 | 270 | 16.1 | 0.0 | 0.00 | 0.00 | 0.00 | 39 | 990.8 |
| 20260502201619 | 8 | 272 | 16.1 | 0.0 | 0.00 | 0.00 | 0.00 | 39 | 990.8 |
| 20260502200146 | 8 | 271 | 17.7 | 0.0 | 0.00 | 0.00 | 0.00 | 39 | 990.8 |
| 20260502194619 | 8 | 271 | 17.7 | 0.0 | 0.00 | 0.00 | 0.00 | 40 | 990.9 |
| 20260502193132 | 8 | 273 | 17.7 | 0.0 | 0.00 | 0.00 | 0.00 | 40 | 990.9 |
| 20260502191619 | 8 | 276 | 17.7 | 0.0 | 0.00 | 0.00 | 0.00 | 40 | 991.0 |